FW3182 Weather Reports


time (UTC)temp
C
wind
direction
speed
KPH
gust
KPH
rain 1hr
cm
rain 24hr
cm
rain mn
cm
humidity
%
barometer
mb
20260505130203 15 17 3.2 4.8 0.00 0.94 0.94 100 1004.4
20260505124203 15 23 1.6 4.8 0.00 0.94 0.94 100 1004.0
20260505123704 14 28 0.0 4.8 0.00 0.94 0.94 100 1004.2
20260505123204 14 62 0.0 1.6 0.00 0.94 0.94 100 1004.2
20260505122203 14 73 0.0 3.2 0.00 0.94 0.94 100 1004.0
20260505121704 14 73 0.0 4.8 0.00 0.94 0.94 100 1004.0
20260505121204 14 42 3.2 4.8 0.00 0.94 0.94 100 1004.0
20260505120704 14 24 0.0 1.6 0.00 0.94 0.94 100 1004.0
20260505115703 14 9 0.0 0.0 0.00 0.94 0.94 100 1004.1
20260505115204 14 9 0.0 0.0 0.00 0.94 0.94 100 1004.1
20260505114703 14 9 0.0 3.2 0.00 0.94 0.94 100 1003.7
20260505114203 14 51 0.0 1.6 0.00 0.94 0.94 100 1003.7
20260505113704 14 51 1.6 3.2 0.00 0.94 0.94 100 1003.8
20260505112204 14 32 4.8 12.9 0.00 0.94 0.94 100 1003.3
20260505111705 14 45 4.8 9.7 0.00 0.94 0.94 100 1003.5
20260505111204 15 302 1.6 4.8 0.00 0.94 0.94 100 1003.8
20260505110203 15 322 1.6 4.8 0.03 0.94 0.94 100 1003.5
20260505102204 15 136 0.0 3.2 0.08 0.94 0.94 100 1002.6
20260505101704 15 208 0.0 3.2 0.10 0.94 0.94 100 1002.8
20260505100703 15 117 0.0 4.8 0.13 0.94 0.94 100 1003.0
20260505100204 15 200 3.2 4.8 0.13 0.91 0.91 100 1003.0
20260505095704 15 176 0.0 4.8 0.18 0.91 0.91 100 1002.6
20260505095203 15 147 1.6 4.8 0.20 0.91 0.91 100 1002.7
20260505094703 15 220 0.0 1.6 0.23 0.91 0.91 100 1002.9
20260505094204 15 95 1.6 4.8 0.28 0.91 0.91 100 1002.9
20260505093703 15 143 1.6 4.8 0.30 0.89 0.89 100 1003.0
20260505093204 15 124 0.0 3.2 0.38 0.89 0.89 100 1003.1
20260505092703 15 148 0.0 3.2 0.43 0.89 0.89 100 1003.3
20260505092204 15 205 1.6 3.2 0.46 0.86 0.86 100 1004.0
20260505091704 15 258 0.0 1.6 0.46 0.84 0.84 100 1004.0
20260505090704 15 267 0.0 0.0 0.53 0.81 0.81 97 1003.4
20260505090203 15 267 0.0 1.6 0.58 0.79 0.79 97 1003.7
20260505085703 15 264 1.6 4.8 0.61 0.74 0.74 97 1003.9
20260505085204 15 276 3.2 9.7 0.64 0.71 0.71 97 1004.1
20260505084703 15 255 9.7 19.3 0.66 0.69 0.69 97 1004.2
20260505083704 15 264 4.8 11.3 0.58 0.58 0.58 97 1004.0
20260505082204 15 271 8.0 16.1 0.41 0.41 0.41 96 1004.0
20260505081704 15 268 8.0 19.3 0.38 0.38 0.38 95 1004.1
20260505081203 15 269 3.2 11.3 0.33 0.33 0.33 94 1004.2
20260505080703 15 248 6.4 16.1 0.28 0.28 0.28 93 1004.5
20260505080204 16 272 4.8 12.9 0.20 0.20 0.20 91 1004.3
20260505075704 16 250 3.2 8.0 0.13 0.13 0.13 89 1004.2
20260505075203 16 264 3.2 9.7 0.08 0.08 0.08 87 1004.2
20260505074704 16 262 3.2 8.0 0.03 0.03 0.03 85 1003.8
20260505074204 16 244 3.2 4.8 0.00 0.00 0.00 83 1003.9
20260505073703 17 201 1.6 8.0 0.00 0.00 0.00 81 1003.9
20260505073203 17 158 3.2 9.7 0.00 0.00 0.00 80 1003.8
20260505072704 17 226 3.2 9.7 0.00 0.00 0.00 79 1003.8
20260505072204 17 141 1.6 4.8 0.00 0.00 0.00 79 1003.5
20260505071703 17 189 4.8 11.3 0.00 0.00 0.00 79 1003.7
20260505071204 17 166 3.2 4.8 0.00 0.00 0.00 79 1003.6
20260505070704 17 217 1.6 4.8 0.00 0.00 0.00 79 1003.6
20260505065704 17 225 0.0 4.8 0.00 0.00 0.00 78 1003.5
20260505065204 17 188 1.6 3.2 0.00 0.00 0.00 78 1003.6
20260505064703 17 189 0.0 3.2 0.00 0.00 0.00 78 1003.7
20260505064203 17 146 1.6 4.8 0.00 0.00 0.00 78 1003.8
20260505063704 17 187 1.6 4.8 0.00 0.00 0.00 78 1004.0
20260505063204 17 212 1.6 3.2 0.00 0.00 0.00 78 1004.0
20260505062704 17 189 0.0 3.2 0.00 0.00 0.00 78 1004.0
20260505062204 17 192 1.6 3.2 0.00 0.00 0.00 78 1004.0
20260505061704 17 182 1.6 4.8 0.00 0.00 0.00 78 1004.2
20260505061204 17 137 0.0 3.2 0.00 0.00 0.00 77 1004.2
20260505060204 17 198 1.6 4.8 0.00 0.00 0.00 77 1004.4
20260505055703 17 205 1.6 4.8 0.00 0.00 0.00 77 1004.3
20260505055204 17 182 1.6 4.8 0.00 0.00 0.00 77 1004.2
20260505054703 17 207 3.2 9.7 0.00 0.00 0.00 77 1004.1
20260505054204 17 190 1.6 4.8 0.00 0.00 0.00 77 1004.1
20260505053704 17 197 1.6 4.8 0.00 0.00 0.00 77 1003.9
20260505053203 17 145 1.6 4.8 0.00 0.00 0.00 77 1003.9
20260505052704 17 184 3.2 9.7 0.00 0.00 0.00 76 1003.9
20260505051704 17 154 1.6 4.8 0.00 0.00 0.00 76 1004.1
20260505051204 17 168 0.0 4.8 0.00 0.00 0.00 76 1004.2
20260505050204 17 197 3.2 4.8 0.00 0.00 0.00 76 1004.5
20260505041204 18 189 1.6 3.2 0.00 0.00 0.00 74 1004.9
20260505040704 18 117 1.6 3.2 0.00 0.00 0.00 74 1005.0
20260505040204 18 134 1.6 8.0 0.00 0.00 0.00 73 1005.0
20260505035703 18 174 1.6 4.8 0.00 0.00 0.00 73 1005.0
20260505035204 18 132 0.0 3.2 0.00 0.00 0.00 73 1005.1
20260505033704 18 150 1.6 4.8 0.00 0.00 0.00 72 1005.2
20260505033204 18 144 0.0 1.6 0.00 0.00 0.00 72 1005.2
20260505032704 18 202 0.0 3.2 0.00 0.00 0.00 71 1005.1
20260505032204 19 138 0.0 3.2 0.00 0.00 0.00 71 1005.2
20260505031704 19 118 1.6 3.2 0.00 0.00 0.00 70 1005.2
20260505030203 20 139 0.0 1.6 0.00 0.00 0.00 68 1005.2
20260505025704 20 159 1.6 3.2 0.00 0.00 0.00 67 1005.1
20260505025203 20 137 0.0 3.2 0.00 0.00 0.00 67 1005.2
20260505024703 20 140 1.6 4.8 0.00 0.00 0.00 66 1005.1
20260505023704 20 185 3.2 9.7 0.00 0.00 0.00 66 1005.1
20260505023203 20 198 4.8 8.0 0.00 0.00 0.00 66 1004.9
20260505021703 20 193 3.2 9.7 0.00 0.00 0.00 65 1004.7
20260505021204 20 214 3.2 12.9 0.00 0.00 0.00 65 1004.5
20260505020704 21 204 4.8 9.7 0.00 0.00 0.00 65 1004.4
20260505020204 21 186 4.8 9.7 0.00 0.00 0.00 65 1004.3
20260505015204 21 183 1.6 12.9 0.00 0.00 0.00 65 1004.1
20260505014703 21 178 3.2 9.7 0.00 0.00 0.00 64 1004.2
20260505014204 21 192 6.4 12.9 0.00 0.00 0.00 64 1004.0
20260505013704 21 163 3.2 4.8 0.00 0.00 0.00 64 1004.0
20260505013203 21 133 1.6 4.8 0.00 0.00 0.00 63 1003.8
20260505012203 21 176 4.8 14.5 0.00 0.00 0.00 63 1003.9
20260505011704 21 184 1.6 9.7 0.00 0.00 0.00 63 1003.9
20260505011204 21 202 1.6 3.2 0.00 0.00 0.00 62 1003.7
20260505010704 22 147 1.6 3.2 0.00 0.00 0.00 62 1003.7
20260505010203 22 136 0.0 3.2 0.00 0.00 0.00 62 1003.7
20260505005704 22 184 0.0 3.2 0.00 0.00 0.00 61 1003.6
20260505005204 22 167 1.6 4.8 0.00 0.00 0.00 61 1003.6
20260505004704 22 192 0.0 3.2 0.00 0.00 0.00 60 1003.3
20260505004204 22 167 1.6 4.8 0.00 0.00 0.00 60 1003.2
20260505003203 22 172 3.2 8.0 0.00 0.00 0.00 58 1003.1
20260505002704 23 191 3.2 9.7 0.00 0.00 0.00 58 1003.0
20260505002204 23 199 4.8 11.3 0.00 0.00 0.00 57 1002.9
20260505001704 23 186 6.4 11.3 0.00 0.00 0.00 57 1003.0
20260505000704 23 148 3.2 11.3 0.00 0.00 0.00 56 1003.0
20260504235703 24 185 6.4 14.5 0.00 0.00 0.00 54 1002.9
20260504234204 25 169 4.8 19.3 0.00 0.00 0.00 53 1002.9
20260504233704 25 170 9.7 16.1 0.00 0.00 0.00 52 1003.0
20260504233203 25 191 8.0 19.3 0.00 0.00 0.00 52 1003.0
20260504232704 25 217 8.0 22.5 0.00 0.00 0.00 51 1003.1
20260504232204 25 154 8.0 25.7 0.00 0.00 0.00 50 1003.0
20260504231704 25 160 8.0 19.3 0.00 0.00 0.00 50 1003.1
20260504231204 26 153 9.7 27.4 0.00 0.00 0.00 49 1003.0
20260504230703 26 177 4.8 20.9 0.00 0.00 0.00 50 1003.2
20260504230204 26 189 8.0 19.3 0.00 0.00 0.00 49 1003.2
20260504225703 26 175 8.0 24.1 0.00 0.00 0.00 48 1003.3
20260504224703 26 124 4.8 16.1 0.00 0.00 0.00 48 1003.2
20260504224204 26 180 8.0 19.3 0.00 0.00 0.00 47 1003.2
20260504223704 26 181 11.3 20.9 0.00 0.00 0.00 46 1003.3
20260504223204 26 197 8.0 19.3 0.00 0.00 0.00 46 1003.3
20260504222703 26 237 9.7 19.3 0.00 0.00 0.00 46 1003.4
20260504222204 26 210 8.0 19.3 0.00 0.00 0.00 46 1003.3
20260504221703 26 190 8.0 24.1 0.00 0.00 0.00 46 1003.4
20260504221204 27 198 9.7 22.5 0.00 0.00 0.00 45 1003.3
20260504220203 27 226 4.8 14.5 0.00 0.00 0.00 46 1003.3
20260504215703 26 215 8.0 22.5 0.00 0.00 0.00 46 1003.4
20260504214704 26 203 11.3 32.2 0.00 0.00 0.00 46 1003.4
20260504214203 26 183 8.0 22.5 0.00 0.00 0.00 46 1003.4
20260504213704 26 205 6.4 20.9 0.00 0.00 0.00 46 1003.5
20260504213204 26 200 14.5 29.0 0.00 0.00 0.00 46 1003.6
20260504212703 26 234 4.8 19.3 0.00 0.00 0.00 48 1003.6
20260504211703 26 236 11.3 24.1 0.00 0.00 0.00 47 1003.7
20260504211204 27 209 12.9 29.0 0.00 0.00 0.00 46 1003.8
20260504210704 27 209 8.0 20.9 0.00 0.00 0.00 47 1003.8
20260504210204 27 249 6.4 24.1 0.00 0.00 0.00 47 1003.7
20260504205704 26 225 8.0 19.3 0.00 0.00 0.00 48 1003.9
20260504205204 26 219 11.3 35.4 0.00 0.00 0.00 47 1004.0
20260504204704 26 203 16.1 32.2 0.00 0.00 0.00 47 1004.0
20260504203704 26 217 9.7 20.9 0.00 0.00 0.00 46 1004.2
20260504202204 26 213 14.5 32.2 0.00 0.00 0.00 46 1004.4
20260504201204 26 190 9.7 29.0 0.00 0.00 0.00 48 1004.4
20260504200703 26 193 8.0 22.5 0.00 0.00 0.00 48 1004.3
20260504195704 26 240 11.3 24.1 0.00 0.00 0.00 47 1004.5
20260504195204 26 220 14.5 41.8 0.00 0.00 0.00 47 1004.5
20260504194704 26 243 9.7 27.4 0.00 0.00 0.00 48 1004.6
20260504194204 26 241 8.0 24.1 0.00 0.00 0.00 47 1004.8
20260504193703 26 175 17.7 35.4 0.00 0.00 0.00 47 1004.8
20260504193203 26 213 14.5 29.0 0.00 0.00 0.00 47 1004.8
20260504192704 26 214 4.8 14.5 0.00 0.00 0.00 49 1004.8
20260504192204 26 255 9.7 22.5 0.00 0.00 0.00 49 1004.8
20260504191703 26 173 11.3 25.7 0.00 0.00 0.00 50 1004.9
20260504191204 25 202 19.3 33.8 0.00 0.00 0.00 48 1005.0
20260504190704 25 190 14.5 32.2 0.00 0.00 0.00 49 1005.1
20260504185703 25 254 17.7 38.6 0.00 0.00 0.00 49 1005.1
20260504185204 25 183 12.9 32.2 0.00 0.00 0.00 50 1005.1
20260504184703 25 222 9.7 37.0 0.00 0.00 0.00 51 1005.2
20260504184204 26 212 12.9 37.0 0.00 0.00 0.00 50 1005.2
20260504183204 26 212 8.0 16.1 0.00 0.00 0.00 51 1005.2
20260504182703 26 199 14.5 40.2 0.00 0.00 0.00 50 1005.4
20260504182203 25 219 9.7 27.4 0.00 0.00 0.00 51 1005.4
20260504181704 25 185 14.5 38.6 0.00 0.00 0.00 50 1005.4
20260504181204 25 193 14.5 51.5 0.00 0.00 0.00 49 1005.4
20260504180704 25 205 11.3 22.5 0.00 0.00 0.00 51 1005.4
20260504180203 25 222 8.0 19.3 0.00 0.00 0.00 50 1005.4
20260504175704 25 190 11.3 22.5 0.00 0.00 0.00 49 1005.5
20260504174703 25 196 11.3 24.1 0.00 0.00 0.00 50 1005.5
20260504174204 25 212 9.7 25.7 0.00 0.00 0.00 51 1005.6
20260504173704 25 210 14.5 32.2 0.00 0.00 0.00 50 1005.6
20260504172704 25 186 11.3 33.8 0.00 0.00 0.00 50 1005.6
20260504172204 25 152 11.3 29.0 0.00 0.00 0.00 50 1005.6
20260504171703 25 210 9.7 25.7 0.00 0.00 0.00 51 1005.6
20260504171204 25 205 8.0 32.2 0.00 0.00 0.00 51 1005.7
20260504170703 25 213 11.3 27.4 0.00 0.00 0.00 51 1005.8
20260504170204 25 186 14.5 24.1 0.00 0.00 0.00 50 1005.8
20260504160204 23 255 11.3 32.2 0.00 0.00 0.00 52 1006.5
20260504150703 21 221 14.5 27.4 0.00 0.00 0.00 54 1006.9
20260504150204 21 225 16.1 32.2 0.00 0.00 0.00 55 1006.9